Location: Mount Kobau Star Party
(49.1167°N, 119.7333°W)
Time: 10:47:36
(UTC-07:00)

BlueWalker 3 - Pass Details

Date: 26 February 2024
Orbit: 485 x 496 km, 53.2° (Epoch: 11 April)

Event Time Altitude Azimuth Distance (km) Brightness Sun altitude
Rises 19:27:20 0° 290° (WNW) 2,555 7.1 -18.8°
Reaches altitude 10° 19:29:33 10° 295° (WNW) 1,672 5.7 -19.1°
Enters shadow 19:33:42 48° 40° (NE) 641 2.2 -19.8°
Exits shadow 20:09:27 -65° 111° (ESE) 12,123 8.9 -25.5°
Sets 21:05:35 0° 294° (WNW) 2,607 6.6 -33.9°
